Weather in Grigorovo

Russia / Novgorod Oblast     58°32′58″N   31°12′35″E
temp.,
°C
wind,
m/s
gust,
m/s
humid.,
%
clouds,
%
prec.,
mm/h
press.,
hPa
HPBL,
m
20 june, sun
sun2000:00+19ssw35801 0.0 102075
03:00+17s24870 0.0 102065
06:00+18ssw24845 0.0 1020124
09:00+23s35650 0.0 1020391
12:00+26s45540 0.0 1019955
15:00+29ssw46444 0.0 10181753
18:00+29s354717 0.0 1017747
21:00+24sw22670 0.0 101724
21 june, mon
mon2100:00+21sw227313 0.0 101713
03:00+20ssw22820 0.1 101817
06:00+20s23870 0.5 101882
09:00+22s247896 0.5 1019184
12:00+28s46575 0.0 1018829
15:00+31s4644100 0.0 10181855
18:00+30ssw3649100 0.0 10161110
21:00+25sse116992 0.0 101711
22 june, tue
tue2200:00+22sse36798 0.0 101789
03:00+20sse37858 0.0 1018125
06:00+20sse36817 0.0 1018168
09:00+24sse36625 0.0 1018346
12:00+29sse46515 0.0 1017901
15:00+31s4841100 0.0 10161623
18:00+30s3745100 0.0 1015990
21:00+25s236540 0.0 101443
23 june, wed
wed2300:00+23s3107385 0.0 1015222
03:00+20s378416 0.0 1016132
06:00+21s378571 0.0 1016183
09:00+26s46705 0.0 1017470
12:00+29ssw465782 0.3 10171242
15:00+31sw3644100 0.8 10171756
18:00+30sw2545100 0.0 1016742
21:00+25n357496 0.0 1016137
24 june, thu
thu2400:00+21ene25885 0.0 1017103
03:00+20ne119042 0.0 101713
06:00+21n239071 0.3 1017104
09:00+25sse127620 1.4 1018322
12:00+29ssw235912 0.2 1017797
15:00+32ssw364774 0.3 10162127
18:00+27nne4565100 1.2 1016445
21:00+20ssw61393100 7.4 1018463